Corona, CA

3:07 AM PDT on March 27, 2017 (GMT -0700)
Corona Municipal

Weather History for KAJO - March, 2013

Change the Weather History Date:

Saturday, March 23, 2013

  Actual Average (KCNO) Record (KCNO)
Temperature  
Mean Temperature 55 °F -  
Max Temperature 75 °F 68 °F 88 °F (2008)
Min Temperature 35 °F 43 °F 35 °F (2009)
Degree Days  
Heating Degree Days 10    
Growing Degree Days 5 (Base 50)    
Moisture  
Dew Point 41 °F    
Average Humidity 84    
Maximum Humidity 100    
Minimum Humidity 32    
Precipitation  
Precipitation 0.00 in - - ()
Sea Level Pressure  
Sea Level Pressure 29.95 in    
Wind  
Wind Speed 2 mph (WNW)    
Max Wind Speed 14 mph    
Max Gust Speed 20 mph    
Visibility 6 miles    
Events Fog    
Averages and records for this station are not official NWS values.
T = Trace of Precipitation, MM = Missing Value Source: NWS Daily Summary

Daily Weather History Graph

Daily Weather History Graph

Search for Another Location

Airport or City:

Trip Planner

Search our weather history database for the weather conditions in past years. The results will help you decide how hot, cold, wet, or windy it might be!

Date:

Astronomy

Mar. 23, 2013 Rise Set
Actual Time 6:49 AM PDT 7:04 PM PDT
Civil Twilight 6:24 AM PDT 7:29 PM PDT
Nautical Twilight 5:55 AM PDT 7:58 PM PDT
Astronomical Twilight 5:25 AM PDT 8:28 PM PDT
Moon 3:44 PM PDT (3/23) 4:19 AM PDT (3/23)
Length of Visible Light 13h 04m
Length of Day
12h 15m
Waxing Gibbous, 86% of the Moon is Illuminated
Mar 23
Waxing Gibbous
Mar 27
Full
Apr 2
Last Quarter
Apr 10
New
Apr 18
First Quarter

Hourly Weather History & Observations

Time (PDT) Temp. Windchill Dew Point Humidity Pressure Visibility Wind Dir Wind Speed Gust Speed Precip Events Conditions
12:56 AM 45.0 °F - 45.0 °F 100% 29.92 in 10.0 mi Calm Calm - N/A   Clear
1:56 AM 43.9 °F - 43.9 °F 100% 29.92 in 10.0 mi Calm Calm - N/A   Clear
2:56 AM 45.0 °F 43.5 °F 45.0 °F 100% 29.91 in 10.0 mi West 3.5 mph - N/A   Clear
3:56 AM 38.8 °F - 38.8 °F 100% 29.91 in 1.0 mi Calm Calm - N/A   Clear
4:01 AM 37.4 °F - 37.4 °F 100% 29.92 in 0.5 mi Calm Calm - N/A Fog Fog
4:11 AM 39.2 °F - 39.2 °F 100% 29.92 in 1.0 mi Calm Calm - N/A   Clear
4:13 AM 39.2 °F - 39.2 °F 100% 29.92 in 1.5 mi Calm Calm - N/A   Clear
4:18 AM 37.4 °F - 37.4 °F 100% 29.92 in 0.8 mi Calm Calm - N/A   Clear
4:23 AM 37.4 °F - 37.4 °F 100% 29.93 in 0.2 mi Calm Calm - N/A Fog Fog
4:47 AM 39.2 °F - 39.2 °F 100% 29.94 in 0.5 mi Calm Calm - N/A Fog Fog
4:56 AM 38.8 °F - 38.8 °F 100% 29.93 in 0.8 mi Calm Calm - N/A   Clear
4:58 AM 37.4 °F - 37.4 °F 100% 29.94 in 2.0 mi Calm Calm - N/A   Clear
5:05 AM 37.4 °F - 37.4 °F 100% 29.94 in 1.2 mi Calm Calm - N/A   Clear
5:07 AM 37.4 °F - 37.4 °F 100% 29.94 in 0.8 mi Calm Calm - N/A   Clear
5:18 AM 35.6 °F - 35.6 °F 100% 29.94 in 1.5 mi Calm Calm - N/A   Clear
5:20 AM 35.6 °F - 35.6 °F 100% 29.94 in 6.0 mi Calm Calm - N/A   Clear
5:31 AM 35.6 °F - 35.6 °F 100% 29.95 in 1.2 mi Calm Calm - N/A   Clear
5:38 AM 35.6 °F - 35.6 °F 100% 29.95 in 1.0 mi Calm Calm - N/A   Clear
5:41 AM 35.6 °F - 35.6 °F 100% 29.95 in 1.8 mi Calm Calm - N/A   Clear
5:45 AM 37.4 °F - 37.4 °F 100% 29.95 in 1.0 mi Calm Calm - N/A   Clear
5:56 AM 37.9 °F - 37.9 °F 100% 29.95 in 10.0 mi Calm Calm - N/A   Clear
6:09 AM 35.6 °F - 35.6 °F 100% 29.95 in 1.8 mi Calm Calm - N/A   Clear
6:12 AM 35.6 °F - 35.6 °F 100% 29.95 in 1.0 mi Calm Calm - N/A   Clear
6:19 AM 35.6 °F - 35.6 °F 100% 29.95 in 1.5 mi Calm Calm - N/A   Clear
6:22 AM 35.6 °F - 35.6 °F 100% 29.95 in 3.0 mi Calm Calm - N/A   Clear
6:56 AM 36.0 °F - 36.0 °F 100% 29.97 in 1.8 mi Calm Calm - N/A   Clear
7:02 AM 37.4 °F - 37.4 °F 100% 29.97 in 4.0 mi Calm Calm - N/A   Clear
7:56 AM 41.9 °F - 41.9 °F 100% 29.99 in 6.0 mi Calm Calm - N/A   Clear
8:56 AM 50.9 °F - 47.8 °F 89% 30.01 in 9.0 mi Calm Calm - N/A   Clear
9:56 AM 57.9 °F - 46.9 °F 67% 30.01 in 9.0 mi Calm Calm - N/A   Clear
10:56 AM 63.0 °F - 46.9 °F 56% 29.99 in 10.0 mi Calm Calm - N/A   Clear
11:56 AM 70.0 °F - 45.0 °F 41% 29.98 in 10.0 mi NNE 5.8 mph - N/A   Clear
12:56 PM 72.9 °F - 41.0 °F 32% 29.98 in 10.0 mi Variable 5.8 mph - N/A   Clear
1:56 PM 74.8 °F - 45.9 °F 36% 29.96 in 10.0 mi West 11.5 mph - N/A   Clear
2:56 PM 75.9 °F - 45.0 °F 33% 29.93 in 10.0 mi West 11.5 mph - N/A   Clear
3:56 PM 74.8 °F - 46.9 °F 37% 29.92 in 10.0 mi West 12.7 mph 17.3 mph N/A   Clear
4:56 PM 72.9 °F - 48.9 °F 43% 29.91 in 10.0 mi West 13.8 mph - N/A   Clear
5:56 PM 68.9 °F - 50.0 °F 51% 29.92 in 10.0 mi West 13.8 mph - N/A   Clear
6:56 PM 64.9 °F - 50.0 °F 58% 29.94 in 10.0 mi WNW 13.8 mph 19.6 mph N/A   Clear
7:56 PM 61.9 °F - 50.0 °F 65% 29.94 in 10.0 mi West 11.5 mph 18.4 mph N/A   Clear
8:56 PM 59.9 °F - 50.0 °F 70% 29.97 in 10.0 mi West 9.2 mph - N/A   Clear
9:56 PM 57.9 °F - 47.8 °F 69% 29.99 in 10.0 mi West 4.6 mph - N/A   Clear
10:56 PM 54.0 °F - 45.9 °F 74% 30.01 in 10.0 mi NE 3.5 mph - N/A   Clear
11:56 PM 50.9 °F - 47.8 °F 89% 30.00 in 10.0 mi Calm Calm - N/A   Clear